London, United Kingdom

12:09 PM BST on April 29, 2017 (GMT +0100)
Heathrow

Weather History for EGLL - February, 2014

Change the Weather History Date:

Monday, February 24, 2014

  Actual Average Record
Temperature  
Mean Temperature 51 °F -  
Max Temperature 58 °F 49 °F 58 °F (2014)
Min Temperature 44 °F 37 °F 26 °F (2004)
Degree Days  
Heating Degree Days 14    
Growing Degree Days 1 (Base 50)    
Moisture  
Dew Point 43 °F    
Average Humidity 74    
Maximum Humidity 87    
Minimum Humidity 50    
Precipitation  
Precipitation 0.02 in - - ()
Sea Level Pressure  
Sea Level Pressure 29.67 in    
Wind  
Wind Speed 11 mph ()    
Max Wind Speed 20 mph    
Max Gust Speed 31 mph    
Visibility 10.3 miles    
Events Rain    
Averages and records for this station are not official NWS values.
T = Trace of Precipitation, MM = Missing Value Source: Averaged Metar Reports

Daily Weather History Graph

Daily Weather History Graph

Search for Another Location

Airport or City:

Trip Planner

Search our weather history database for the weather conditions in past years. The results will help you decide how hot, cold, wet, or windy it might be!

Date:

Astronomy

Feb. 24, 2014 Rise Set
Actual Time 6:57 AM GMT 5:33 PM GMT
Civil Twilight 6:24 AM GMT 6:06 PM GMT
Nautical Twilight 5:45 AM GMT 6:45 PM GMT
Astronomical Twilight 5:06 AM GMT 7:24 PM GMT
Moon 3:04 AM GMT (2/24) 11:56 AM GMT (2/24)
Length of Visible Light 11h 42m
Length of Day
10h 35m
Waning Crescent, 30% of the Moon is Illuminated
Feb 24
Waning Crescent
Mar 1
New
Mar 8
First Quarter
Mar 16
Full
Mar 24
Last Quarter

Hourly Weather History & Observations

Time (GMT) Temp. Windchill Dew Point Humidity Pressure Visibility Wind Dir Wind Speed Gust Speed Precip Events Conditions
12:00 AM 48 °F - 41 °F 70% 29.79 in 22 mi SSE 15.0 mph - -   Scattered Clouds
12:20 AM 48.2 °F - 42.8 °F 82% 29.77 in - South 15.0 mph - N/A   Clear
12:50 AM 48.2 °F - 42.8 °F 82% 29.77 in - South 11.5 mph - N/A   Clear
1:00 AM 48 °F - 41 °F 69% 29.78 in 17 mi SSE 12.7 mph - -  
1:20 AM 48.2 °F - 41.0 °F 76% 29.77 in 6.2 mi SSE 11.5 mph - N/A   Unknown
1:50 AM 48.2 °F - 42.8 °F 82% 29.74 in 6.2 mi SSE 10.4 mph - N/A   Unknown
2:00 AM 47 °F - 41 °F 72% 29.75 in 17 mi SSE 12.7 mph - -   Mostly Cloudy
2:20 AM 48.2 °F - 41.0 °F 76% 29.74 in 6.2 mi SSE 10.4 mph - N/A   Unknown
2:50 AM 46.4 °F 42.4 °F 41.0 °F 81% 29.71 in - SSE 8.1 mph - N/A   Clear
3:00 AM 47 °F - 40 °F 70% 29.73 in 22 mi SE 8.1 mph - -   Mostly Cloudy
3:20 AM 46.4 °F 41.9 °F 41.0 °F 81% 29.71 in - SSE 9.2 mph - N/A   Clear
3:50 AM 46.4 °F 42.9 °F 41.0 °F 81% 29.71 in - SSE 6.9 mph - N/A   Clear
4:00 AM 46 °F - 40 °F 71% 29.71 in 19 mi SE 6.9 mph - -   Mostly Cloudy
4:20 AM 46.4 °F 43.5 °F 41.0 °F 81% 29.71 in - SSE 5.8 mph - N/A   Clear
4:50 AM 46.4 °F 42.4 °F 41.0 °F 81% 29.68 in - SSE 8.1 mph - N/A   Clear
5:00 AM 45 °F - 40 °F 75% 29.70 in 19 mi SE 8.1 mph - -   Scattered Clouds
5:20 AM 46.4 °F 41.9 °F 41.0 °F 81% 29.68 in - SSE 9.2 mph - N/A   Clear
5:50 AM 44.6 °F 39.7 °F 41.0 °F 87% 29.68 in - SSE 9.2 mph - N/A   Clear
6:00 AM 45 °F - 40 °F 77% 29.69 in 17 mi SSE 10.4 mph - -  
6:20 AM 46.4 °F 41.9 °F 41.0 °F 81% 29.68 in - SSE 9.2 mph - N/A   Clear
6:50 AM 46.4 °F 41.9 °F 41.0 °F 81% 29.68 in - South 9.2 mph - N/A   Clear
7:00 AM 47 °F - 41 °F 73% 29.69 in 19 mi SSE 9.2 mph - -  
7:20 AM 46.4 °F 41.9 °F 41.0 °F 81% 29.68 in - South 9.2 mph - N/A   Clear
7:50 AM 46.4 °F 41.5 °F 41.0 °F 81% 29.68 in - South 10.4 mph - N/A   Clear
8:00 AM 47 °F - 41 °F 73% 29.69 in 19 mi South 10.4 mph - -  
8:20 AM 48.2 °F - 42.8 °F 82% 29.68 in - South 11.5 mph - N/A   Clear
8:50 AM 48.2 °F - 42.8 °F 82% 29.68 in - South 13.8 mph - N/A   Clear
9:00 AM 49 °F - 42 °F 69% 29.69 in 17 mi South 12.7 mph - -  
9:20 AM 50.0 °F - 42.8 °F 76% 29.68 in 6.2 mi SSW 15.0 mph - N/A   Partly Cloudy
9:50 AM 51.8 °F - 42.8 °F 71% 29.68 in 6.2 mi SSW 12.7 mph - N/A   Partly Cloudy
10:00 AM 52 °F - 42 °F 60% 29.69 in 19 mi South 11.5 mph - -  
10:20 AM 53.6 °F - 44.6 °F 72% 29.68 in 6.2 mi South 12.7 mph - N/A   Partly Cloudy
10:50 AM 53.6 °F - 44.6 °F 72% 29.68 in 6.2 mi South 13.8 mph - N/A   Partly Cloudy
11:00 AM 54 °F - 42 °F 55% 29.68 in 19 mi South 13.8 mph - -  
11:20 AM 55.4 °F - 44.6 °F 67% 29.68 in 6.2 mi South 13.8 mph - N/A   Partly Cloudy
11:50 AM 57.2 °F - 44.6 °F 63% 29.68 in 6.2 mi South 13.8 mph - N/A   Scattered Clouds
12:00 PM 56 °F - 43 °F 50% 29.69 in 17 mi South 13.8 mph - -   Scattered Clouds
12:20 PM 57.2 °F - 44.6 °F 63% 29.68 in 6.2 mi SSW 13.8 mph - N/A   Scattered Clouds
12:50 PM 57.2 °F - 44.6 °F 63% 29.68 in 6.2 mi South 15.0 mph - N/A   Mostly Cloudy
1:00 PM 56 °F - 43 °F 52% 29.68 in 17 mi South 15.0 mph - -   Scattered Clouds
1:20 PM 57.2 °F - 44.6 °F 63% 29.68 in 6.2 mi SSW 16.1 mph - N/A   Mostly Cloudy
1:50 PM 55.4 °F - 44.6 °F 67% 29.68 in 6.2 mi SSW 17.3 mph 31.1 mph N/A   Scattered Clouds
2:00 PM 55 °F - 43 °F 54% 29.67 in 19 mi South 15.0 mph - -   Mostly Cloudy
2:20 PM 55.4 °F - 44.6 °F 67% 29.65 in 6.2 mi SSW 17.3 mph - N/A   Scattered Clouds
2:50 PM 53.6 °F - 44.6 °F 72% 29.65 in 6.2 mi SSW 15.0 mph 26.5 mph N/A   Scattered Clouds
3:00 PM 54 °F - 44 °F 59% 29.68 in 15 mi South 13.8 mph - -   Scattered Clouds
3:20 PM 53.6 °F - 44.6 °F 72% 29.65 in 6.2 mi SSW 16.1 mph - N/A   Mostly Cloudy
3:50 PM 51.8 °F - 44.6 °F 76% 29.68 in 6.2 mi SSW 16.1 mph - N/A   Scattered Clouds
4:00 PM 53 °F - 44 °F 61% 29.68 in 17 mi South 15.0 mph - - Rain Rain
4:20 PM 50.0 °F - 46.4 °F 87% 29.68 in 5.6 mi SSW 13.8 mph - N/A Rain Light Rain
4:50 PM 50.0 °F - 46.4 °F 87% 29.65 in 6.2 mi South 10.4 mph - N/A   Scattered Clouds
5:00 PM 51 °F - 45 °F 74% 29.67 in 14 mi South 9.2 mph - - Rain Light Rain
5:20 PM 51.8 °F - 44.6 °F 76% 29.65 in 6.2 mi South 11.5 mph - N/A Rain Light Rain
5:50 PM 50.0 °F - 46.4 °F 87% 29.65 in 6.2 mi South 9.2 mph - N/A   Mostly Cloudy
6:00 PM 51 °F - 44 °F 71% 29.67 in 15 mi South 9.2 mph - - Rain Light Rain Showers
6:20 PM 51.8 °F - 44.6 °F 76% 29.65 in 6.2 mi South 8.1 mph - N/A   Mostly Cloudy
6:50 PM 50.0 °F - 46.4 °F 87% 29.65 in 6.2 mi SSW 6.9 mph - N/A Rain Light Rain
7:00 PM 50 °F - 45 °F 76% 29.66 in 8 mi SSW 5.8 mph - - Rain Light Rain Showers
7:20 PM 50.0 °F - 46.4 °F 87% 29.65 in 6.2 mi SSW 6.9 mph - N/A Rain Light Rain
7:50 PM 50.0 °F - 46.4 °F 87% 29.62 in 6.2 mi South 6.9 mph - N/A   Scattered Clouds
8:00 PM 50 °F - 45 °F 77% 29.64 in 12 mi South 6.9 mph - - Rain Rain
8:20 PM 50.0 °F - 46.4 °F 87% 29.62 in 6.2 mi South 8.1 mph - N/A   Partly Cloudy
8:50 PM 50.0 °F - 46.4 °F 87% 29.59 in 6.2 mi South 8.1 mph - N/A   Partly Cloudy
9:00 PM 51 °F - 45 °F 74% 29.61 in 13 mi South 8.1 mph - - Rain Rain
9:20 PM 53.6 °F - 46.4 °F 77% 29.59 in 6.2 mi South 13.8 mph - N/A   Partly Cloudy
9:50 PM 53.6 °F - 44.6 °F 72% 29.56 in 6.2 mi South 19.6 mph - N/A   Partly Cloudy
10:00 PM 54 °F - 44 °F 60% 29.58 in 17 mi South 19.6 mph - - Rain Rain
10:20 PM 53.6 °F - 46.4 °F 77% 29.56 in 6.2 mi South 19.6 mph 31.1 mph N/A   Partly Cloudy
10:50 PM 53.6 °F - 46.4 °F 77% 29.56 in 6.2 mi South 18.4 mph - N/A   Partly Cloudy
11:00 PM 53 °F - 44 °F 64% 29.57 in 14 mi South 18.4 mph - -   Scattered Clouds
11:20 PM 53.6 °F - 46.4 °F 77% 29.56 in 6.2 mi South 16.1 mph - N/A   Partly Cloudy
11:50 PM 51.8 °F - 46.4 °F 82% 29.53 in 6.2 mi South 19.6 mph - N/A   Partly Cloudy